HST,Max TemperatureF,Mean TemperatureF,Min TemperatureF,Max Dew PointF,MeanDew PointF,Min DewpointF,Max Humidity, Mean Humidity, Min Humidity, Max Sea Level PressureIn, Mean Sea Level PressureIn, Min Sea Level PressureIn, Max VisibilityMiles, Mean VisibilityMiles, Min VisibilityMiles, Max Wind SpeedMPH, Mean Wind SpeedMPH, Max Gust SpeedMPH,PrecipitationIn, CloudCover, Events, WindDirDegrees
2011-10-1,84,78,73,70,67,61,76,65,46,30.01,29.96,29.90,10,10,10,12,8,,0.00,4,Rain,146
2011-10-2,84,78,73,70,67,64,78,65,55,30.06,30.00,29.96,10,10,10,12,5,,0.00,5,,183
2011-10-3,86,80,75,69,66,62,72,62,54,30.11,30.05,30.01,10,10,10,13,6,,0.00,1,,163
2011-10-4,84,78,73,69,67,64,74,65,58,30.09,30.05,29.99,10,10,10,10,6,,0.00,3,,182
2011-10-5,84,80,75,68,66,62,66,61,56,30.06,30.03,29.98,10,10,10,15,8,,0.00,4,,193
2011-10-6,82,78,75,70,67,63,74,67,56,30.04,30.01,29.96,10,10,10,12,6,,0.00,4,Rain,172
2011-10-7,82,78,73,71,69,65,88,73,62,30.04,30.00,29.96,10,10,5,13,7,,0.14,4,Rain,164
2011-10-8,84,80,75,70,67,64,74,66,56,30.09,30.04,30.00,10,10,10,10,7,,0.00,2,,160
2011-10-9,84,78,73,70,67,60,71,66,52,30.09,30.05,30.01,10,10,10,10,7,,0.00,1,,167
2011-10-10,84,78,73,68,66,63,76,63,55,30.06,30.01,29.95,10,10,10,14,5,,0.00,3,,160
2011-10-11,84,78,73,67,65,62,71,62,53,30.00,29.96,29.91,10,10,10,14,6,20,0.00,4,,159
2011-10-12,84,78,73,69,66,60,69,63,54,30.03,29.97,29.93,10,10,10,15,7,,0.00,4,,239
2011-10-13,84,78,72,69,66,61,79,65,54,30.04,30.00,29.96,10,10,10,15,7,,0.00,2,Rain,136
2011-10-14,84,78,73,67,64,59,71,60,43,30.02,29.99,29.93,10,10,10,17,9,23,0.00,2,,130
2011-10-15,84,80,75,69,66,61,71,63,47,30.03,29.99,29.94,10,10,10,20,7,26,0.00,5,,134
2011-10-16,84,78,73,68,66,63,73,64,52,30.04,29.99,29.93,10,10,10,14,7,,0.00,1,,202
2011-10-17,82,78,73,67,64,50,69,63,56,30.05,30.01,29.96,10,10,10,17,7,,0.00,4,,194
2011-10-18,82,78,73,67,65,63,73,65,56,30.06,30.02,29.97,10,10,10,10,5,,0.00,1,,171
2011-10-19,84,78,73,67,65,62,73,64,55,30.05,30.00,29.95,10,10,10,14,6,,0.00,1,,158
2011-10-20,84,78,71,67,63,55,69,59,48,30.03,30.00,29.95,10,10,10,13,7,,0.00,4,,215
2011-10-21,84,78,73,67,64,62,69,62,51,30.08,30.02,29.98,10,10,10,12,8,,0.00,2,,147
2011-10-22,82,77,72,68,65,60,71,66,60,30.06,30.01,29.95,10,10,10,10,5,,0.00,2,,193
2011-10-23,84,78,73,69,66,61,71,65,58,29.99,29.94,29.88,10,10,10,10,5,,0.00,3,,200
2011-10-24,82,78,73,69,67,63,73,66,58,29.98,29.93,29.89,10,10,10,10,5,,0.00,2,,142
2011-10-25,87,80,73,70,66,59,83,65,41,30.02,29.95,29.91,10,10,10,14,7,,0.00,3,Rain,122
2011-10-26,82,78,73,70,68,66,88,72,65,30.01,29.98,29.93,10,10,10,14,8,,0.21,4,Rain,268
2011-10-27,82,76,71,70,67,59,87,68,46,29.99,29.94,29.88,10,10,10,16,6,,0.02,3,,236
2011-10-28,82,78,73,68,65,58,79,65,52,29.91,29.88,29.83,10,10,10,14,7,,0.00,5,,181
2011-10-29,84,76,69,68,64,60,78,64,51,29.94,29.90,29.83,10,10,10,16,5,,0.00,1,,212
2011-10-30,84,78,72,66,64,57,73,62,42,29.96,29.91,29.86,10,10,10,12,8,,0.00,2,,129
2011-10-31,82,78,73,68,66,61,79,67,58,29.99,29.94,29.90,10,10,10,13,6,,0.00,2,,197